Location: Gallinara
(44.0333°N, 8.2333°E)
Time: 01:58:23
(UTC+00:00)

USA 32 - Pass Details

Date: 25 September 2020
Orbit: 778 x 782 km, 85.0° (Epoch: 27 September)

Event Time Altitude Azimuth Distance (km) Brightness Sun altitude
Rises 03:22:51 0° 353° (N) 3,277 7.4 -21.1°
Reaches altitude 10° 03:25:13 10° 352° (N) 2,345 6.6 -20.7°
Maximum altitude 03:30:28 75° 268° (W) 814 3.9 -19.8°
Drops below altitude 10° 03:35:41 10° 183° (S) 2,330 6.3 -18.9°
Sets 03:38:01 0° 182° (S) 3,254 7.1 -18.5°
